COSMOS 1933

Last updated on Sun Aug 31 2025 00:02:14 GMT+0000 (Coordinated Universal Time)

1 18958U 88020A 25242.03554113 .00005163 00000+0 26860-3 0 9995 2 18958 82.5109 80.2177 0005419 131.2848 228.8852 15.15832383 21174
UTC large
Height (km)
Speed (km/s)
/
Latitude / Longitude
Inclination (degrees)
Orbital Period (minutes)
Azimuth
Elevation
Range (km)
Doppler Factor

Next 0 passes for location: London (51.5072 / 0.1276)

Sorry there are no passes over London.